Ortonville, MN

9:45 PM CDT on June 27, 2017 (GMT -0500)
Ortonville Municipal-Martinson

Weather History for KVVV - September, 2013

Change the Weather History Date:

Friday, September 13, 2013

  Actual Average (KAQP) Record (KAQP)
Temperature  
Mean Temperature 60 °F -  
Max Temperature 75 °F 72 °F 87 °F (1998)
Min Temperature 46 °F 49 °F 37 °F (2014)
Degree Days  
Heating Degree Days 4    
Growing Degree Days 10 (Base 50)    
Moisture  
Dew Point 46 °F    
Average Humidity 64    
Maximum Humidity 100    
Minimum Humidity 31    
Precipitation  
Precipitation 0.00 in - - ()
Sea Level Pressure  
Sea Level Pressure 30.16 in    
Wind  
Wind Speed 4 mph (SE)    
Max Wind Speed 12 mph    
Max Gust Speed 16 mph    
Visibility 9 miles    
Events Fog    
Averages and records for this station are not official NWS values.
T = Trace of Precipitation, MM = Missing Value Source: NWS Daily Summary

Daily Weather History Graph

Daily Weather History Graph

Search for Another Location

Airport or City:

Trip Planner

Search our weather history database for the weather conditions in past years. The results will help you decide how hot, cold, wet, or windy it might be!

Date:

Astronomy

Sep. 13, 2013 Rise Set
Actual Time 7:02 AM CDT 7:39 PM CDT
Civil Twilight 6:32 AM CDT 8:09 PM CDT
Nautical Twilight 5:57 AM CDT 8:44 PM CDT
Astronomical Twilight 5:20 AM CDT 9:21 PM CDT
Moon 3:42 PM CDT (9/13) 12:20 AM CDT (9/13)
Length of Visible Light 13h 37m
Length of Day
12h 37m
First Quarter, 61% of the Moon is Illuminated
Sep 13
First Quarter
Sep 19
Full
Sep 26
Last Quarter
Oct 4
New
Oct 11
First Quarter

Hourly Weather History & Observations

Time (CDT) Temp. Windchill Dew Point Humidity Pressure Visibility Wind Dir Wind Speed Gust Speed Precip Events Conditions
12:13 AM 53.6 °F - 46.4 °F 77% 30.25 in 10.0 mi Calm Calm - N/A   Clear
12:34 AM 53.6 °F - 46.4 °F 77% 30.24 in 10.0 mi Calm Calm - N/A   Clear
12:54 AM 53.6 °F - 44.6 °F 72% 30.24 in 10.0 mi Calm Calm - N/A   Clear
1:13 AM 51.8 °F - 44.6 °F 76% 30.24 in 10.0 mi Calm Calm - N/A   Clear
1:34 AM 53.6 °F - 46.4 °F 77% 30.24 in 10.0 mi NE 3.5 mph - N/A   Clear
1:54 AM 51.8 °F - 48.2 °F 88% 30.24 in 10.0 mi Calm Calm - N/A   Clear
2:14 AM 50.0 °F - 46.4 °F 87% 30.24 in 10.0 mi SE 3.5 mph - N/A   Clear
2:34 AM 51.8 °F - 48.2 °F 88% 30.24 in 10.0 mi ESE 3.5 mph - N/A   Clear
2:53 AM 51.8 °F - 46.4 °F 82% 30.24 in 10.0 mi ESE 4.6 mph - N/A   Clear
3:14 AM 51.8 °F - 46.4 °F 82% 30.24 in 10.0 mi ESE 4.6 mph - N/A   Clear
3:34 AM 50.0 °F - 46.4 °F 87% 30.24 in 10.0 mi Calm Calm - N/A   Clear
3:53 AM 48.2 °F - 46.4 °F 93% 30.24 in 10.0 mi SE 3.5 mph - N/A   Clear
4:14 AM 48.2 °F - 44.6 °F 87% 30.24 in 10.0 mi Calm Calm - N/A   Clear
4:34 AM 48.2 °F - 46.4 °F 93% 30.25 in 10.0 mi Calm Calm - N/A   Clear
4:54 AM 48.2 °F - 44.6 °F 87% 30.25 in 7.0 mi Calm Calm - N/A   Clear
5:14 AM 46.4 °F - 44.6 °F 93% 30.25 in 4.0 mi Calm Calm - N/A   Clear
5:34 AM 46.4 °F - 44.6 °F 93% 30.25 in 2.5 mi Calm Calm - N/A   Clear
5:53 AM 46.4 °F - 44.6 °F 93% 30.25 in 5.0 mi Calm Calm - N/A   Clear
6:14 AM 46.4 °F - 44.6 °F 93% 30.25 in 0.8 mi Calm Calm - N/A   Mostly Cloudy
6:33 AM 46.4 °F - 46.4 °F 100% 30.24 in 7.0 mi Calm Calm - N/A   Scattered Clouds
6:54 AM 46.4 °F 44.3 °F 46.4 °F 100% 30.25 in 10.0 mi SE 4.6 mph - N/A   Clear
7:14 AM 46.4 °F 45.2 °F 44.6 °F 93% 30.25 in 10.0 mi SE 3.5 mph - N/A   Clear
7:33 AM 46.4 °F 45.2 °F 44.6 °F 93% 30.25 in 0.5 mi SE 3.5 mph - N/A Fog Fog
7:54 AM 46.4 °F 44.3 °F 44.6 °F 93% 30.25 in 0.2 mi SE 4.6 mph - N/A Fog Fog
8:14 AM 48.2 °F - 46.4 °F 93% 30.25 in 0.5 mi SE 3.5 mph - N/A Fog Fog
8:33 AM 50.0 °F - 48.2 °F 94% 30.25 in 4.0 mi Calm Calm - N/A   Clear
8:54 AM 51.8 °F - 50.0 °F 94% 30.25 in 10.0 mi Calm Calm - N/A   Clear
9:13 AM 53.6 °F - 50.0 °F 88% 30.24 in 10.0 mi SSE 3.5 mph - N/A   Clear
9:34 AM 57.2 °F - 48.2 °F 72% 30.24 in 10.0 mi SSE 5.8 mph - N/A   Clear
9:54 AM 59.0 °F - 48.2 °F 67% 30.24 in 10.0 mi SSE 8.1 mph - N/A   Clear
10:13 AM 62.6 °F - 48.2 °F 59% 30.24 in 10.0 mi SSE 9.2 mph - N/A   Clear
10:34 AM 64.4 °F - 46.4 °F 52% 30.24 in 10.0 mi SSE 10.4 mph - N/A   Clear
10:54 AM 64.4 °F - 46.4 °F 52% 30.23 in 10.0 mi SSE 8.1 mph - N/A   Clear
11:13 AM 66.2 °F - 46.4 °F 49% 30.23 in 10.0 mi SE 11.5 mph - N/A   Clear
11:34 AM 68.0 °F - 44.6 °F 43% 30.22 in 10.0 mi South 10.4 mph - N/A   Clear
11:53 AM 69.8 °F - 44.6 °F 40% 30.22 in 10.0 mi South 9.2 mph - N/A   Clear
12:14 PM 69.8 °F - 44.6 °F 40% 30.21 in 10.0 mi South 9.2 mph - N/A   Clear
12:34 PM 69.8 °F - 44.6 °F 40% 30.20 in 10.0 mi South 9.2 mph - N/A   Clear
12:53 PM 71.6 °F - 44.6 °F 38% 30.19 in 10.0 mi SSE 10.4 mph - N/A   Clear
1:14 PM 71.6 °F - 44.6 °F 38% 30.18 in 10.0 mi SSE 9.2 mph - N/A   Clear
1:34 PM 71.6 °F - 44.6 °F 38% 30.16 in 10.0 mi South 11.5 mph - N/A   Clear
1:53 PM 73.4 °F - 44.6 °F 36% 30.16 in 10.0 mi SSE 9.2 mph - N/A   Clear
2:14 PM 73.4 °F - 44.6 °F 36% 30.15 in 10.0 mi South 9.2 mph 16.1 mph N/A   Clear
2:34 PM 73.4 °F - 44.6 °F 36% 30.14 in 10.0 mi South 9.2 mph - N/A   Clear
2:53 PM 73.4 °F - 44.6 °F 36% 30.13 in 10.0 mi South 6.9 mph 16.1 mph N/A   Clear
3:14 PM 75.2 °F - 42.8 °F 31% 30.12 in 10.0 mi South 6.9 mph - N/A   Clear
3:34 PM 75.2 °F - 42.8 °F 31% 30.11 in 10.0 mi SSE 11.5 mph 16.1 mph N/A   Clear
3:54 PM 75.2 °F - 42.8 °F 31% 30.11 in 10.0 mi SSE 8.1 mph - N/A   Clear
4:14 PM 75.2 °F - 44.6 °F 34% 30.10 in 10.0 mi SE 6.9 mph 16.1 mph N/A   Clear
4:34 PM 75.2 °F - 44.6 °F 34% 30.09 in 10.0 mi SSE 9.2 mph - N/A   Clear
4:54 PM 75.2 °F - 42.8 °F 31% 30.09 in 10.0 mi SSE 6.9 mph 10.4 mph N/A   Clear
5:13 PM 75.2 °F - 44.6 °F 34% 30.08 in 10.0 mi SE 11.5 mph - N/A   Clear
5:34 PM 75.2 °F - 44.6 °F 34% 30.07 in 10.0 mi SE 10.4 mph - N/A   Clear
5:54 PM 73.4 °F - 44.6 °F 36% 30.07 in 10.0 mi SE 9.2 mph - N/A   Clear
6:13 PM 73.4 °F - 44.6 °F 36% 30.06 in 10.0 mi SE 11.5 mph - N/A   Clear
6:34 PM 73.4 °F - 44.6 °F 36% 30.06 in 10.0 mi SE 8.1 mph - N/A   Clear
6:54 PM 71.6 °F - 46.4 °F 41% 30.05 in 10.0 mi SE 8.1 mph - N/A   Clear
7:13 PM 69.8 °F - 48.2 °F 46% 30.04 in 10.0 mi SE 5.8 mph - N/A   Clear
7:34 PM 64.4 °F - 48.2 °F 56% 30.04 in 10.0 mi SE 5.8 mph - N/A   Clear
7:54 PM 62.6 °F - 46.4 °F 55% 30.04 in 10.0 mi SE 6.9 mph - N/A   Clear
8:13 PM 62.6 °F - 46.4 °F 55% 30.04 in 10.0 mi SE 6.9 mph - N/A   Clear
8:34 PM 60.8 °F - 46.4 °F 59% 30.04 in 10.0 mi SE 8.1 mph - N/A   Clear
8:54 PM 59.0 °F - 46.4 °F 63% 30.04 in 10.0 mi SE 6.9 mph - N/A   Clear
9:14 PM 59.0 °F - 46.4 °F 63% 30.04 in 10.0 mi SE 6.9 mph - N/A   Clear
9:34 PM 57.2 °F - 46.4 °F 67% 30.04 in 10.0 mi SE 6.9 mph - N/A   Clear
9:54 PM 57.2 °F - 46.4 °F 67% 30.03 in 10.0 mi SE 6.9 mph - N/A   Clear
10:14 PM 55.4 °F - 46.4 °F 72% 30.03 in 10.0 mi SE 6.9 mph - N/A   Clear
10:34 PM 55.4 °F - 46.4 °F 72% 30.03 in 10.0 mi SSE 4.6 mph - N/A   Clear
10:54 PM 55.4 °F - 48.2 °F 77% 30.02 in 10.0 mi SSE 3.5 mph - N/A   Clear
11:14 PM 55.4 °F - 46.4 °F 72% 30.02 in 10.0 mi SSE 4.6 mph - N/A   Clear
11:33 PM 55.4 °F - 46.4 °F 72% 30.02 in 10.0 mi SSE 4.6 mph - N/A   Clear
11:54 PM 53.6 °F - 46.4 °F 77% 30.02 in 10.0 mi SSE 3.5 mph - N/A   Clear